Retour au catalogue

BREEZE-M DEB

LostMEO
NORAD 41543·DEBRIS·🇷🇺 Russia

Lancé Dec 13, 2015 depuis Baikonur Cosmodrome

Loading…

Prochains Passages (prochaines 24 heures)

TLE

PériméSource: Space-Track

Époque: May 12, 2026, 01:22 UTC

1 41543U 15075D   26132.05714814 -.00000029  00000-0  00000-0 0  9991
2 41543   8.3369  59.2363 0241348 159.4997 201.3963  1.05300587 39704

Suivez BREEZE-M DEB en temps réel avec AllMySat

Download on the App Store